[Date Prev][Date Next][Thread Prev][Thread Next] - [Date Index][Thread Index][Author Index]

2 Line ISS Keps 6-27



ISS
1 25544U 98067A   01176.88560185  .00045160  00000-0  48899-3 0  1344
2 25544  51.5707  44.6990 0016684 205.6776 336.7936 15.62930289148439


----
Via the sarex mailing list at AMSAT.ORG courtesy of AMSAT-NA.
To unsubscribe, send "unsubscribe sarex" to Majordomo@amsat.org



AMSAT Top AMSAT Home